Regional Weather Roundup
Issued by NWS

Home | Current Version | Previous Version | Graphics & Text | Print | Product List | Glossary On
Versions: 1 2 3 4 5 6 7 8 9 10 11 12 13 14 15 16 17 18 19 20 21 22 23 24 25 26 27 28 29 30 31 32 33 34 35 36 37 38 39 40 41 42 43 44 45 46 47 48 49 50
000
ASUS45 KABQ 050801
RWRNM
NEW MEXICO REGIONAL WEATHER ROUNDUP
NATIONAL WEATHER SERVICE ALBUQUERQUE NM
200 AM MDT SUN JUL 05 2015

NOTE: "FAIR" MEANS FEW OR NO CLOUDS BELOW 12,000 FEET AGL WITH NO
       SIGNIFICANT WEATHER OR OBSTRUCTIONS TO VISION.

      THIS PRODUCT IS RELEASED AS TWO VERSIONS.  ONE VERSION NEAR
      THE TOP OF THE HOUR CONTAINING PRELIMINARY DATA FROM ALBUQUERQUE
      AND OTHER STATIONS.  A FINAL VERSION WITH ADDITIONAL DATA IS
      ISSUED ABOUT 10 MINUTES AFTER THE HOUR.

NMZ501-503-504-510>518-050900-
NORTHWEST PLATEAU/NORTHCENTRAL MOUNTAINS

CITY           SKY/WX    TMP DP  RH WIND       PRES   REMARKS
FARMINGTON     PTCLDY    63  58  83 N5        30.15F
SANTA FE       CLOUDY    65  54  67 S5        30.18F
TAOS           PTCLDY    57  43  58 E6        30.24F

$$
NMZ402-403-502-505>509-050900-
WESTCENTRAL MOUNTAINS/SOUTHWEST MOUNTAINS

CITY           SKY/WX    TMP DP  RH WIND       PRES   REMARKS
GALLUP         CLOUDY    63  56  78 S5        30.22F
GRANTS         CLOUDY    62  57  84 CALM      30.24F
SILVER CITY      N/A     64  63  94 CALM      30.20S

$$
NMZ407-409-411-412-050900-
SOUTHERN DESERTS

CITY           SKY/WX    TMP DP  RH WIND       PRES   REMARKS
LORDSBURG      FAIR      72  61  68 S9        30.10R
DEMING         LGT RAIN  68  66  93 NW7       30.10F
HOLLOMAN AFB   MOCLDY    77  58  52 S5        30.04S
ALAMOGORDO     MOCLDY    75  57  53 S9        30.06F
T OR C         CLOUDY    70  61  73 W5        30.10S

$$
NMZ519>523-050900-
CENTRAL VALLEYS/CENTRAL HIGHLANDS

CITY           SKY/WX    TMP DP  RH WIND       PRES   REMARKS
ALBUQUERQUE    MOCLDY    69  58  67 S5        30.13F
DOUBLE EAGLE   MOCLDY    63  55  76 NE5       30.17S
CLINES CORNERS MOCLDY    60  52  74 W10       30.22F
BELEN          FAIR      68  54  61 SW5       30.12S
SOCORRO        NOT AVBL

$$
NMZ524>526-539-540-050900-
SOUTHCENTRAL MOUNTAINS

CITY           SKY/WX    TMP DP  RH WIND       PRES   REMARKS
RUIDOSO        NOT AVBL

$$
NMZ527>531-050900-
NORTHEAST HIGHLANDS/NORTHEAST PLAINS

CITY           SKY/WX    TMP DP  RH WIND       PRES   REMARKS
LAS VEGAS      MOCLDY    58  52  80 S10       30.20F
RATON          PTCLDY    59  53  80 NW5       30.14S
CLAYTON        PTCLDY    65  56  72 SW8       30.06R

$$
NMZ532>537-050900-
EASTCENTRAL PLAINS

CITY           SKY/WX    TMP DP  RH WIND       PRES   REMARKS
TUCUMCARI      PTCLDY    71  58  63 SW8       30.02R
CANNON AFB     PTCLDY    68  62  79 S7        30.06F
CLOVIS AIRPORT MOCLDY    66  61  82 S7          N/A

$$
NMZ028-029-538-050900-
SOUTHEAST PLAINS

CITY           SKY/WX    TMP DP  RH WIND       PRES   REMARKS
ROSWELL        CLEAR     71  59  65 S6        30.02S
ARTESIA        PTCLDY    73  61  64 S8        30.03S
CARLSBAD       PTCLDY    74  60  61 S7        30.00S
HOBBS          PTCLDY    70  61  73 S6        30.06S


$$


USA.gov is the U.S. government's official web portal to all federal, state and local government web resources and services.